Regional Weather Roundup
Issued by NWS

Home | Current Version | Previous Version | Graphics & Text | Print | Product List | Glossary On
Versions: 1 2 3 4 5 6 7 8 9 10 11 12 13 14 15 16 17 18 19 20 21 22 23 24 25 26 27 28 29 30 31 32 33 34 35 36 37 38 39 40 41 42 43 44 45 46 47 48 49 50
000
ASUS43 KLMK 200602
RWRKY
KENTUCKY REGIONAL WEATHER ROUNDUP
NATIONAL WEATHER SERVICE LOUISVILLE KY
200 AM EDT SUN AUG 20 2017

NOTE "FAIR" INDICATES FEW OR NO CLOUDS BELOW 12,000 FEET
WITH NO SIGNIFICANT WEATHER AND/OR OBSTRUCTIONS TO VISIBILITY.

KYZ001>023-026-027-061>063-070>075-200700-
WESTERN AND SOUTH CENTRAL KENTUCKY

CITY           SKY/WX    TMP DP  RH WIND       PRES   REMARKS
PADUCAH        PTCLDY    71  68  90 W5        29.99R
HENDERSON      CLEAR     68  67  96 CALM      29.99S
OWENSBORO      PTCLDY    74  70  87 CALM      30.00S
HOPKINSVILLE   CLEAR     74  71  88 CALM      30.00S
BOWLING GREEN  CLEAR     72  71  97 CALM      30.01F
GLASGOW        CLEAR     68  68 100 CALM      30.02F
$$

KYZ024-025-028>034-038-045-046-053-200700-
NORTH CENTRAL KENTUCKY

CITY           SKY/WX    TMP DP  RH WIND       PRES   REMARKS
LOUISVILLE/SDF CLEAR     76  69  79 SE5       30.00S
LOUISVILLE/LOU CLEAR     72  70  93 CALM      30.01S
FORT KNOX      CLEAR     69  69 100 CALM      30.01R
$$

KYZ035>037-039>044-047>052-055>060-089>105-200700-
NORTHEAST KENTUCKY

CITY           SKY/WX    TMP DP  RH WIND       PRES   REMARKS
LEXINGTON      CLEAR     73  66  78 S6        30.04S
COVINGTON      CLOUDY    73  71  93 CALM      30.03S
FRANKFORT      PTCLDY    72  67  84 CALM      30.02R
$$

KYZ054-064>069-076>088-106>120-200700-
SOUTHEAST KENTUCKY

CITY           SKY/WX    TMP DP  RH WIND       PRES   REMARKS
JACKSON        CLEAR     71  67  87 CALM      30.07S
LONDON         CLEAR     69  66  90 CALM      30.06F FOG
SOMERSET       NOT AVBL
MIDDLESBORO    CLEAR     67  67 100 CALM      30.09S
MONTICELLO     CLEAR     66  65  96 CALM      30.07S FOG
$$





USA.gov is the U.S. government's official web portal to all federal, state and local government web resources and services.